This is the latest recevied weather packets stored in our database for station/object KA9CBS. If no packets are shown the sender has not sent any weather packets the latest 10 day(s).
| Time | Temp. | Humidity | Pressure | Rain* | Wind** | Luminosity | Snow |
|---|---|---|---|---|---|---|---|
| 1777415332 | 16.67° C | 91% | 1015.2 hPa | 1.78 mm | - | 13 W/m² | - |
| 1777415028 | 16.67° C | 89% | 1014.8 hPa | 1.27 mm | - | 15 W/m² | - |
| 1777414726 | 16.67° C | 86% | 1015.1 hPa | 0 mm | - | 16 W/m² | - |
| 1777414423 | 16.67° C | 84% | 1015.4 hPa | 0 mm | - | 16 W/m² | - |
| 1777414122 | 17.22° C | 85% | 1015.8 hPa | 0 mm | - | 20 W/m² | - |
| 1777413818 | 17.22° C | 84% | 1015.7 hPa | 0 mm | - | 23 W/m² | - |
| 1777413513 | 17.22° C | 85% | 1015.5 hPa | 0 mm | - | 30 W/m² | - |
| 1777413210 | 17.22° C | 84% | 1015.6 hPa | 0 mm | - | 33 W/m² | - |
| 1777412906 | 17.22° C | 83% | 1015.1 hPa | 0 mm | - | 35 W/m² | - |
| 1777412605 | 17.22° C | 84% | 1015.4 hPa | 0 mm | - | 41 W/m² | - |
| 1777412302 | 17.78° C | 84% | 1015.5 hPa | 0 mm | - | 48 W/m² | - |
| 1777411997 | 17.78° C | 82% | 1015.4 hPa | 0 mm | - | 53 W/m² | - |
| 1777411697 | 17.78° C | 82% | 1015.6 hPa | 0 mm | - | 61 W/m² | - |
| 1777411392 | 17.78° C | 82% | 1015.5 hPa | 0 mm | - | 68 W/m² | - |
| 1777411091 | 17.78° C | 82% | 1015.7 hPa | 0 mm | - | 79 W/m² | - |
| 1777410787 | 17.78° C | 82% | 1016 hPa | 0 mm | - | 81 W/m² | - |
| 1777410485 | 17.78° C | 82% | 1016 hPa | 0 mm | - | 54 W/m² | - |
| 1777410185 | 18.33° C | 83% | 1016.2 hPa | 0 mm | - | 46 W/m² | - |
| 1777409880 | 18.33° C | 81% | 1016 hPa | 0 mm | - | 62 W/m² | - |
| 1777409575 | 18.33° C | 81% | 1016.3 hPa | 0 mm | - | 64 W/m² | - |
| 1777409271 | 17.78° C | 80% | 1016.3 hPa | 0 mm | - | 80 W/m² | - |
| 1777408968 | 18.33° C | 82% | 1016.3 hPa | 0 mm | - | 84 W/m² | - |
| 1777408664 | 18.33° C | 82% | 1016.5 hPa | 0 mm | - | 78 W/m² | - |
| 1777408360 | 18.89° C | 83% | 1016.4 hPa | 0 mm | - | 75 W/m² | - |
| 1777408059 | 18.33° C | 78% | 1016.3 hPa | 0 mm | - | 74 W/m² | - |
* Rain latest hour (hover to see other rain measurements)
** Current wind speed in m/s (hover to see current wind gust speed)